This demonstration page uses our WeatherBlox Daily Observations layout. Learn more.

Left ArrowRight Arrow

Hourly Observations for July 29, 2018

Temp ( °F °C ) Dew Point ( °F °C ) Humidity (%) Winds ( mph kmh ) Pressure ( in mb ) Visibility ( mi km ) Precip ( " mm )
12:53 am 00:53 Cloudy with Haze 78 25.6 56 13.3 47 47 N 5 7 29.87 1012 4 6 0.00 0.00
1:53 am 01:53 Cloudy with Haze 76 24.4 57 13.9 52 52 NW 3 6 29.88 1012 5 8 0.00 0.00
2:53 am 02:53 Cloudy with Haze 76 24.4 57 13.9 52 52 Calm 29.87 1012 5 8 0.00 0.00
3:53 am 03:53 Cloudy with Haze 73 22.8 58 14.4 59 59 Calm 29.88 1012 4 6 0.00 0.00
4:53 am 04:53 Cloudy with Haze 71 21.7 58 14.4 63 63 Calm 29.88 1012 4 6 0.00 0.00
5:53 am 05:53 Cloudy with Haze 70 21.1 58 14.4 66 66 Calm 29.89 1012 4 6 0.00 0.00
6:53 am 06:53 Cloudy with Haze 70 21.1 58 14.4 66 66 N 3 6 29.90 1013 3 5 0.00 0.00
7:53 am 07:53 Cloudy with Haze 72 22.2 58 14.4 61 61 Calm 29.91 1013 3 5 0.00 0.00
8:53 am 08:53 Cloudy with Haze 79 26.1 58 14.4 49 49 Calm 29.91 1013 3 5 0.00 0.00
9:53 am 09:53 Mostly Cloudy with Haze 86 30 55 12.8 35 35 Calm 29.90 1013 3 5 0.00 0.00
10:53 am 10:53 Mostly Cloudy with Haze 92 33.3 51 10.6 25 25 VRB 3 6 29.89 1012 3 5 0.00 0.00
11:53 am 11:53 Mostly Cloudy with Haze 95 35 52 11.1 23 23 Calm 29.88 1012 3 5 0.00 0.00
12:53 pm 12:53 Mostly Cloudy with Haze 98 36.7 53 11.7 22 22 SSW 7 11 29.87 1012 3 5 0.00 0.00
1:53 pm 13:53 Mostly Cloudy with Haze 100 37.8 48 8.9 17 17 undefined N/A 29.86 1011 3 5 0.00 0.00
2:53 pm 14:53 Cloudy with Haze 102 38.9 50 10 17 17 Calm 29.84 1011 3 5 0.00 0.00
3:53 pm 15:53 Mostly Cloudy with Haze 103 39.4 55 12.8 20 20 SSE 15 24 29.83 1010 4 6 0.00 0.00
4:53 pm 16:53 Mostly Cloudy with Haze 101 38.3 56 13.3 22 22 SSE 10 17 29.83 1010 4 6 0.00 0.00
5:53 pm 17:53 Cloudy with Haze 100 37.8 55 12.8 22 22 SSE 12 19 29.82 1010 5 8 0.00 0.00
6:53 pm 18:53 Cloudy with Haze 97 36.1 57 13.9 26 26 SSE 10 17 29.82 1010 5 8 0.00 0.00
7:53 pm 19:53 Cloudy with Haze 93 33.9 59 15 32 32 SSE 7 11 29.83 1010 6 10 0.00 0.00
8:53 pm 20:53 Cloudy with Smoke 88 31.1 61 16.1 40 40 S 3 6 29.86 1011 8 13 0.00 0.00
9:53 pm 21:53 Cloudy with Smoke 86 30 63 17.2 46 46 SSE 5 7 29.88 1012 8 13 0.00 0.00
10:53 pm 22:53 Clear with Smoke 85 29.4 63 17.2 48 48 NNE 3 6 29.89 1012 8 13 0.00 0.00
11:53 pm 23:53 Clear with Smoke 86 30 65 18.3 49 49 Calm 29.90 1013 8 13 0.00 0.00

Powered by AerisWeather